Location: Oshawa
(43.9000°N, 78.8670°W)
Time: 07:05:19
(UTC-04:00)

Explorer 7 - Visible Passes

Search period start: 18 April 2014 00:00
Search period end: 28 April 2014 00:00
Orbit: 493 x 710 km, 50.3° (Epoch: 17 April)

Date Brightness Start Highest point End Pass type
(mag) Time Alt. Az. Time Alt. Az. Time Alt. Az.
18 Apr 9.6 02:53:34 14° E 02:53:34 14° E 02:54:36 10° E visible
18 Apr 7.0 04:30:17 46° WSW 04:31:37 86° NNW 04:36:27 10° ENE visible
19 Apr 8.9 03:04:08 24° E 03:04:08 24° E 03:06:19 10° ENE visible
19 Apr 7.4 04:40:50 30° W 04:42:56 61° NNW 04:47:43 10° ENE visible
20 Apr 8.2 03:14:39 38° E 03:14:39 38° E 03:17:44 10° ENE visible
20 Apr 7.9 04:51:21 19° W 04:54:19 47° NNW 04:58:59 10° ENE visible
21 Apr 7.5 03:25:08 60° NE 03:25:08 60° NE 03:29:01 10° ENE visible
21 Apr 8.2 05:01:49 12° WNW 05:05:45 40° N 05:10:20 10° ENE visible
22 Apr 7.3 03:35:34 60° NNW 03:35:36 60° NNW 03:40:16 10° ENE visible
22 Apr 8.4 05:12:57 10° WNW 05:17:13 37° N 05:21:45 10° ENE visible
23 Apr 9.5 02:09:17 16° ENE 02:09:17 16° ENE 02:10:16 10° ENE visible
23 Apr 7.8 03:45:59 39° NW 03:46:57 46° NNW 03:51:31 10° ENE visible
23 Apr 8.4 05:24:21 10° WNW 05:28:41 38° N 05:33:15 10° ENE visible
24 Apr 9.0 02:19:40 24° ENE 02:19:40 24° ENE 02:21:32 10° ENE visible
24 Apr 8.2 03:56:21 25° WNW 03:58:22 39° N 04:02:50 10° ENE visible
24 Apr 8.3 05:35:40 10° WNW 05:40:06 43° NNE 05:44:47 10° E visible
25 Apr 8.6 02:30:02 33° NE 02:30:02 33° NE 02:32:45 10° ENE visible
25 Apr 8.4 04:06:43 16° WNW 04:09:48 37° N 04:14:13 10° ENE visible
25 Apr 8.0 05:46:54 10° WNW 05:51:28 54° NNE 05:56:18 10° E visible
26 Apr 8.2 02:40:22 40° NNE 02:40:22 40° NNE 02:43:58 10° ENE visible
26 Apr 8.4 04:17:03 10° WNW 04:21:14 38° N 04:25:42 10° ENE visible
27 Apr 8.2 02:50:42 38° NNW 02:50:56 38° N 02:55:15 10° ENE visible
27 Apr 8.3 04:28:19 10° WNW 04:32:38 42° NNE 04:37:12 10° E visible
